TimeCST,TemperatureF,Dew PointF,Humidity,Sea Level PressureIn,VisibilityMPH,Wind Direction,Wind SpeedMPH,Gust SpeedMPH,PrecipitationIn,Events,Conditions,WindDirDegrees,DateUTC
12:53 AM,10.9,1.0,64,30.44,10.0,NE,3.5,-,N/A,,Clear,50,2013-02-21 06:53:00
1:53 AM,9.0,1.0,70,30.45,10.0,NE,4.6,-,N/A,,Clear,40,2013-02-21 07:53:00
2:53 AM,9.0,1.0,70,30.46,10.0,ENE,4.6,-,N/A,,Clear,60,2013-02-21 08:53:00
4:53 AM,8.1,1.0,73,30.43,10.0,NE,6.9,-,N/A,,Clear,50,2013-02-21 10:53:00
5:53 AM,8.1,-0.0,70,30.36,10.0,NE,8.1,-,N/A,,Clear,40,2013-02-21 11:53:00
6:44 AM,6.8,-0.4,72,30.41,10.0,South,6.9,-,N/A,,Clear,180,2013-02-21 12:44:00
6:53 AM,7.0,-0.0,73,30.49,10.0,SSE,5.8,-,N/A,,Clear,160,2013-02-21 12:53:00
7:53 AM,7.0,1.0,77,30.47,10.0,ENE,5.8,-,N/A,,Clear,70,2013-02-21 13:53:00
8:53 AM,10.9,1.9,67,30.43,10.0,ENE,9.2,-,N/A,,Clear,60,2013-02-21 14:53:00
9:53 AM,12.9,3.9,67,30.41,10.0,ENE,6.9,-,N/A,,Clear,70,2013-02-21 15:53:00
10:53 AM,16.0,3.9,59,30.42,10.0,East,5.8,-,N/A,,Clear,90,2013-02-21 16:53:00
11:53 AM,18.0,5.0,57,30.40,10.0,ENE,8.1,-,N/A,,Clear,70,2013-02-21 17:53:00
12:53 PM,19.0,6.1,57,30.35,10.0,ENE,11.5,-,N/A,,Clear,70,2013-02-21 18:53:00
1:53 PM,21.0,7.0,55,30.33,10.0,ENE,9.2,-,N/A,,Clear,70,2013-02-21 19:53:00
2:53 PM,21.9,8.1,55,30.29,10.0,ENE,10.4,-,N/A,,Clear,60,2013-02-21 20:53:00
3:53 PM,21.9,8.1,55,30.27,10.0,ENE,12.7,-,N/A,,Clear,70,2013-02-21 21:53:00
4:53 PM,21.9,8.1,55,30.25,10.0,ENE,16.1,20.7,N/A,,Clear,60,2013-02-21 22:53:00
5:53 PM,21.9,9.0,58,30.25,10.0,NE,9.2,-,N/A,,Clear,50,2013-02-21 23:53:00
6:53 PM,21.9,9.0,58,30.22,10.0,NE,10.4,19.6,N/A,,Clear,50,2013-02-22 00:53:00
7:53 PM,21.9,9.0,58,30.21,10.0,East,6.9,-,N/A,,Clear,80,2013-02-22 01:53:00
8:53 PM,21.9,10.0,60,30.20,10.0,East,6.9,-,N/A,,Clear,90,2013-02-22 02:53:00
9:53 PM,21.9,10.0,60,30.17,10.0,NE,9.2,-,N/A,,Overcast,50,2013-02-22 03:53:00
10:53 PM,21.9,10.0,60,30.14,10.0,ENE,5.8,-,N/A,,Overcast,60,2013-02-22 04:53:00
11:53 PM,21.9,10.9,63,30.11,9.0,ENE,12.7,18.4,0.00,Snow,Light Snow,60,2013-02-22 05:53:00